Flag for U.S.A. Weather past 2 weeks in Panama City, Florida, U.S.A.

Now
69 °F

Overcast.


Feels Like: 69 °F
Forecast: 62 / 79 °F
Wind: 5 mph from West

Location: Tyndall Air Force Base

Current Time: Apr 21, 2015 at 9:38:09 PM

Latest Report: Apr 21, 2015 at 8:58 PM


Visibility: 10 mi

Pressure: 30.03 "Hg

Humidity: 66%

Dew point: 57 °F

Location of Panama CityLocation

Historic Weather in Panama City — Graph

°F

Panama City temperature yesterday

Maximum temperature yesterday: 77 °F (at 4:58 PM)
Minimum temperature yesterday: 66 °F (at 8:58 AM)
Average temperature yesterday: 72 °F

Past Weeks' High & Low Weather Summary

 TemperatureHumidityPressure
High82 °F (Apr 8, 11:58 AM)100% (Apr 6, 10:03 PM)30.19 "Hg (Apr 6, 10:03 PM)
Low61 °F (Apr 21, 5:58 AM)36% (Apr 21, 2:58 PM)29.81 "Hg (Apr 20, 2:58 AM)
Average73 °F89%30.04 "Hg
* Reported Apr 6 7:58 PM — Apr 21 7:58 PM, Panama City, Weather by CustomWeather, © 2015

Note: Actual official high and low records may vary slightly from our data, if they occured in-between our weather recording intervals... More about our weather records

Advertising

Panama City weather history for previous 24 hours

 ConditionsComfort  
Time TempWeatherWind HumidityBarometerVisibility
7:58 PM
Tue, Apr 21
69 °FOvercast.5 mph64%30.00 "Hg10 mi
6:58 PM71 °FScattered clouds.6 mph61%29.98 "Hg10 mi
5:58 PM71 °FPartly sunny.7 mph57%29.97 "Hg10 mi
4:58 PM74 °FSunny.10 mph53%29.97 "Hg10 mi
3:58 PM76 °FSunny.14 mph50%29.97 "Hg10 mi
2:58 PM78 °FSunny.5 mph36%29.98 "Hg10 mi
1:58 PM76 °FSunny.5 mph40%30.00 "Hg10 mi
12:58 PM74 °FSunny.7 mph43%30.01 "Hg10 mi
11:58 AM72 °FSunny.6 mph44%30.04 "Hg10 mi
10:58 AM71 °FSunny.6 mph45%30.05 "Hg10 mi
9:58 AM69 °FSunny.7 mph50%30.05 "Hg10 mi
8:58 AM67 °FSunny.10 mph53%30.04 "Hg10 mi
7:58 AM64 °FSunny.6 mph68%30.03 "Hg10 mi
6:58 AM62 °FSunny.5 mph74%30.01 "Hg10 mi
5:58 AM61 °FClear.3 mph77%29.99 "Hg10 mi
4:58 AM63 °FClear.6 mph73%29.97 "Hg10 mi
3:58 AM64 °FPassing clouds.8 mph68%29.95 "Hg10 mi
2:58 AM65 °FClear.8 mph73%29.93 "Hg10 mi
1:58 AM68 °FPassing clouds.7 mph73%29.93 "Hg10 mi
12:58 AM71 °FPassing clouds.12 mph78%29.92 "Hg10 mi
11:58 PM
Mon, Apr 20
72 °FClear.10 mph80%29.92 "Hg10 mi
10:58 PM72 °FPassing clouds.12 mph75%29.91 "Hg10 mi
9:58 PM72 °FPassing clouds.10 mph85%29.90 "Hg10 mi
Weather by CustomWeather, © 2015

See weather overviewHow to use our weather pages